Information on these data can be found in provided Readme document
Contact Info: Zachary Fasnacht (zachary.fasnacht@ssaihq.com); Nickolay Krotkov (nickolay.a.krotkov@nasa.gov); Lok Lamsal (lok.lamsal@nasa.gov)

FillValue: -999.
ScaleFactor: 1e15
Units: molecules/cm^2

Date(yyyy-mm-dd),City,Country,LonCenter,LatCenter,BoundingCoordinates,Median,Q1,Q3,Mean,Baseline_Median,Baseline_Q1,Baseline_Q3,Baseline_Mean,NumGoodSamples,NumTotalSamples
2015-01-01,Dhaka,Bangladesh,90.4201,23.808,[89.9201 23.308 90.9201 24.308],3.929,2.456,10.065,6.527,6.206,4.107,10.158,8.148,81.0,539.0
2015-01-02,Dhaka,Bangladesh,90.4201,23.808,[89.9201 23.308 90.9201 24.308],4.965,3.221,6.544,6.088,6.226,4.086,10.339,8.059,101.0,527.0
2015-01-03,Dhaka,Bangladesh,90.4201,23.808,[89.9201 23.308 90.9201 24.308],5.058,3.226,6.544,6.128,6.184,4.124,9.764,7.973,98.0,549.0
2015-01-04,Dhaka,Bangladesh,90.4201,23.808,[89.9201 23.308 90.9201 24.308],4.965,2.865,6.544,5.786,6.346,4.141,9.889,8.061,108.0,534.0
2015-01-05,Dhaka,Bangladesh,90.4201,23.808,[89.9201 23.308 90.9201 24.308],5.018,3.124,7.032,6.063,6.285,4.233,9.956,8.092,138.0,543.0
2015-01-06,Dhaka,Bangladesh,90.4201,23.808,[89.9201 23.308 90.9201 24.308],4.879,2.865,6.543,5.659,6.28,4.188,9.615,8.009,124.0,545.0
2015-01-07,Dhaka,Bangladesh,90.4201,23.808,[89.9201 23.308 90.9201 24.308],5.28,3.353,7.83,6.64,6.061,4.204,9.5,7.808,144.0,529.0
2015-01-08,Dhaka,Bangladesh,90.4201,23.808,[89.9201 23.308 90.9201 24.308],5.28,3.353,7.83,6.64,6.063,4.194,9.531,7.846,144.0,544.0
2015-01-09,Dhaka,Bangladesh,90.4201,23.808,[89.9201 23.308 90.9201 24.308],5.551,3.374,8.253,6.624,5.95,4.091,8.805,7.322,160.0,518.0
2015-01-10,Dhaka,Bangladesh,90.4201,23.808,[89.9201 23.308 90.9201 24.308],5.751,3.784,8.44,6.982,6.126,4.255,9.009,7.418,149.0,485.0
2015-01-11,Dhaka,Bangladesh,90.4201,23.808,[89.9201 23.308 90.9201 24.308],5.751,3.734,8.253,6.616,6.027,4.247,8.987,7.321,128.0,473.0
2015-01-12,Dhaka,Bangladesh,90.4201,23.808,[89.9201 23.308 90.9201 24.308],5.751,4.085,8.333,6.734,6.31,4.396,9.112,7.471,129.0,494.0
2015-01-13,Dhaka,Bangladesh,90.4201,23.808,[89.9201 23.308 90.9201 24.308],5.91,4.268,8.44,7.009,6.257,4.364,9.556,7.603,119.0,484.0
2015-01-14,Dhaka,Bangladesh,90.4201,23.808,[89.9201 23.308 90.9201 24.308],5.913,4.327,8.507,7.049,6.209,4.336,9.216,7.433,143.0,483.0
2015-01-15,Dhaka,Bangladesh,90.4201,23.808,[89.9201 23.308 90.9201 24.308],5.913,4.327,8.507,7.056,6.335,4.407,9.279,7.606,141.0,488.0
2015-01-16,Dhaka,Bangladesh,90.4201,23.808,[89.9201 23.308 90.9201 24.308],6.404,4.627,8.63,7.234,6.235,4.39,8.73,7.427,163.0,468.0
2015-01-17,Dhaka,Bangladesh,90.4201,23.808,[89.9201 23.308 90.9201 24.308],7.298,4.627,9.59,7.796,6.392,4.459,9.123,7.679,143.0,480.0
2015-01-18,Dhaka,Bangladesh,90.4201,23.808,[89.9201 23.308 90.9201 24.308],5.551,3.706,8.507,6.686,6.156,4.31,9.139,7.548,170.0,466.0
2015-01-19,Dhaka,Bangladesh,90.4201,23.808,[89.9201 23.308 90.9201 24.308],5.81,3.784,8.661,6.966,6.371,4.418,9.119,7.687,151.0,492.0
2015-01-20,Dhaka,Bangladesh,90.4201,23.808,[89.9201 23.308 90.9201 24.308],5.749,3.706,8.661,6.672,6.516,4.405,9.193,7.747,139.0,478.0
2015-01-21,Dhaka,Bangladesh,90.4201,23.808,[89.9201 23.308 90.9201 24.308],5.81,3.706,8.917,6.812,6.264,4.172,9.38,7.696,169.0,487.0
2015-01-22,Dhaka,Bangladesh,90.4201,23.808,[89.9201 23.308 90.9201 24.308],5.483,3.589,8.44,6.118,6.086,4.035,9.445,7.581,149.0,489.0
2015-01-23,Dhaka,Bangladesh,90.4201,23.808,[89.9201 23.308 90.9201 24.308],5.468,3.545,8.257,5.951,6.019,3.905,9.209,7.363,160.0,476.0
2015-01-24,Dhaka,Bangladesh,90.4201,23.808,[89.9201 23.308 90.9201 24.308],5.302,3.525,7.697,5.889,5.994,3.936,9.226,7.438,144.0,490.0
2015-01-25,Dhaka,Bangladesh,90.4201,23.808,[89.9201 23.308 90.9201 24.308],4.912,2.885,7.24,5.531,5.799,3.724,9.086,7.315,163.0,517.0
2015-01-26,Dhaka,Bangladesh,90.4201,23.808,[89.9201 23.308 90.9201 24.308],4.961,2.885,7.24,5.563,5.741,3.593,8.918,7.251,160.0,536.0
2015-01-27,Dhaka,Bangladesh,90.4201,23.808,[89.9201 23.308 90.9201 24.308],4.466,2.343,6.477,4.96,5.537,3.41,8.776,7.014,187.0,524.0
2015-01-28,Dhaka,Bangladesh,90.4201,23.808,[89.9201 23.308 90.9201 24.308],4.459,2.343,6.404,5.063,5.529,3.375,8.73,6.942,216.0,543.0
2015-01-29,Dhaka,Bangladesh,90.4201,23.808,[89.9201 23.308 90.9201 24.308],4.235,2.343,6.236,4.929,5.445,3.391,8.622,6.857,204.0,535.0
2015-01-30,Dhaka,Bangladesh,90.4201,23.808,[89.9201 23.308 90.9201 24.308],4.459,2.36,6.404,4.988,5.457,3.283,7.994,6.635,228.0,537.0
2015-01-31,Dhaka,Bangladesh,90.4201,23.808,[89.9201 23.308 90.9201 24.308],4.154,2.342,5.779,4.665,5.665,3.502,8.171,6.814,206.0,546.0
2015-02-01,Dhaka,Bangladesh,90.4201,23.808,[89.9201 23.308 90.9201 24.308],4.235,2.343,6.236,4.882,5.197,3.225,7.968,6.505,228.0,525.0
2015-02-02,Dhaka,Bangladesh,90.4201,23.808,[89.9201 23.308 90.9201 24.308],4.235,2.342,6.509,5.077,5.245,3.234,8.01,6.584,201.0,538.0
2015-02-03,Dhaka,Bangladesh,90.4201,23.808,[89.9201 23.308 90.9201 24.308],4.235,2.391,6.441,5.044,5.128,3.166,7.809,6.37,208.0,526.0
2015-02-04,Dhaka,Bangladesh,90.4201,23.808,[89.9201 23.308 90.9201 24.308],4.154,2.391,5.82,4.975,4.895,3.068,7.402,6.225,190.0,551.0
2015-02-05,Dhaka,Bangladesh,90.4201,23.808,[89.9201 23.308 90.9201 24.308],3.967,2.203,5.425,4.513,4.968,3.018,7.55,6.207,179.0,538.0
2015-02-06,Dhaka,Bangladesh,90.4201,23.808,[89.9201 23.308 90.9201 24.308],4.067,2.391,5.747,4.811,4.881,3.108,7.306,6.052,209.0,548.0
2015-02-07,Dhaka,Bangladesh,90.4201,23.808,[89.9201 23.308 90.9201 24.308],4.154,2.391,5.779,4.891,4.725,3.131,7.19,5.965,198.0,551.0
2015-02-08,Dhaka,Bangladesh,90.4201,23.808,[89.9201 23.308 90.9201 24.308],4.098,2.391,5.858,4.848,4.827,3.137,7.08,5.871,215.0,538.0
2015-02-09,Dhaka,Bangladesh,90.4201,23.808,[89.9201 23.308 90.9201 24.308],4.201,2.391,6.358,5.05,4.898,3.149,7.196,5.928,196.0,552.0
2015-02-10,Dhaka,Bangladesh,90.4201,23.808,[89.9201 23.308 90.9201 24.308],4.5,2.643,7.233,5.345,4.983,3.208,7.359,5.955,216.0,528.0
2015-02-11,Dhaka,Bangladesh,90.4201,23.808,[89.9201 23.308 90.9201 24.308],5.006,3.423,8.379,6.157,5.145,3.371,7.639,6.233,185.0,495.0
2015-02-12,Dhaka,Bangladesh,90.4201,23.808,[89.9201 23.308 90.9201 24.308],4.746,2.711,7.882,5.618,5.253,3.399,7.623,6.256,161.0,483.0
2015-02-13,Dhaka,Bangladesh,90.4201,23.808,[89.9201 23.308 90.9201 24.308],4.64,2.687,8.057,5.756,5.16,3.355,7.781,6.307,183.0,501.0
2015-02-14,Dhaka,Bangladesh,90.4201,23.808,[89.9201 23.308 90.9201 24.308],4.565,2.643,7.896,5.663,5.23,3.357,7.871,6.316,164.0,488.0
2015-02-15,Dhaka,Bangladesh,90.4201,23.808,[89.9201 23.308 90.9201 24.308],4.582,2.651,7.943,5.789,4.981,3.23,7.203,5.905,189.0,487.0
2015-02-16,Dhaka,Bangladesh,90.4201,23.808,[89.9201 23.308 90.9201 24.308],4.5,2.651,7.603,5.577,5.111,3.304,7.333,6.054,167.0,494.0
2015-02-17,Dhaka,Bangladesh,90.4201,23.808,[89.9201 23.308 90.9201 24.308],4.472,2.538,7.603,5.529,5.094,3.295,7.258,5.99,189.0,475.0
2015-02-18,Dhaka,Bangladesh,90.4201,23.808,[89.9201 23.308 90.9201 24.308],4.257,2.521,7.896,5.602,5.096,3.301,7.377,6.103,182.0,485.0
2015-02-19,Dhaka,Bangladesh,90.4201,23.808,[89.9201 23.308 90.9201 24.308],4.053,2.522,6.277,5.063,5.204,3.462,7.088,6.042,208.0,474.0
2015-02-20,Dhaka,Bangladesh,90.4201,23.808,[89.9201 23.308 90.9201 24.308],4.054,2.651,6.69,5.267,5.168,3.562,7.222,6.113,189.0,501.0
2015-02-21,Dhaka,Bangladesh,90.4201,23.808,[89.9201 23.308 90.9201 24.308],4.053,2.443,5.517,4.757,5.222,3.532,7.533,6.243,177.0,488.0
2015-02-22,Dhaka,Bangladesh,90.4201,23.808,[89.9201 23.308 90.9201 24.308],4.054,2.545,6.186,5.312,5.463,3.536,7.717,6.52,203.0,496.0
2015-02-23,Dhaka,Bangladesh,90.4201,23.808,[89.9201 23.308 90.9201 24.308],4.149,2.56,5.922,5.401,5.365,3.518,7.702,6.538,186.0,499.0
2015-02-24,Dhaka,Bangladesh,90.4201,23.808,[89.9201 23.308 90.9201 24.308],4.268,2.748,6.898,5.666,5.03,3.491,7.47,6.327,204.0,487.0
2015-02-25,Dhaka,Bangladesh,90.4201,23.808,[89.9201 23.308 90.9201 24.308],4.234,2.524,5.773,5.4,5.099,3.497,7.389,6.424,184.0,501.0
2015-02-26,Dhaka,Bangladesh,90.4201,23.808,[89.9201 23.308 90.9201 24.308],4.054,2.611,5.489,5.186,4.942,3.438,7.165,6.211,203.0,528.0
2015-02-27,Dhaka,Bangladesh,90.4201,23.808,[89.9201 23.308 90.9201 24.308],4.255,2.748,5.707,5.394,5.029,3.495,7.41,6.346,193.0,545.0
2015-02-28,Dhaka,Bangladesh,90.4201,23.808,[89.9201 23.308 90.9201 24.308],4.257,2.748,5.773,5.142,5.008,3.496,7.28,6.271,190.0,534.0
2015-03-01,Dhaka,Bangladesh,90.4201,23.808,[89.9201 23.308 90.9201 24.308],4.268,2.748,6.104,5.193,5.109,3.555,7.493,6.4,219.0,555.0
2015-03-02,Dhaka,Bangladesh,90.4201,23.808,[89.9201 23.308 90.9201 24.308],4.257,2.748,6.104,5.101,5.356,3.785,7.813,6.6,206.0,545.0
2015-03-03,Dhaka,Bangladesh,90.4201,23.808,[89.9201 23.308 90.9201 24.308],4.268,2.79,6.205,5.196,5.146,3.534,7.583,6.351,233.0,543.0
2015-03-04,Dhaka,Bangladesh,90.4201,23.808,[89.9201 23.308 90.9201 24.308],4.268,2.88,6.104,5.193,5.268,3.667,7.972,6.635,211.0,547.0
2015-03-05,Dhaka,Bangladesh,90.4201,23.808,[89.9201 23.308 90.9201 24.308],4.394,2.88,6.452,5.271,5.289,3.654,7.497,6.498,234.0,527.0
2015-03-06,Dhaka,Bangladesh,90.4201,23.808,[89.9201 23.308 90.9201 24.308],4.86,3.193,7.228,5.726,5.471,3.811,8.0,6.704,208.0,537.0
2015-03-07,Dhaka,Bangladesh,90.4201,23.808,[89.9201 23.308 90.9201 24.308],4.928,3.472,7.491,5.85,5.479,3.819,8.145,6.698,235.0,523.0
2015-03-08,Dhaka,Bangladesh,90.4201,23.808,[89.9201 23.308 90.9201 24.308],5.013,3.582,8.053,6.104,5.522,3.926,7.886,6.663,217.0,548.0
2015-03-09,Dhaka,Bangladesh,90.4201,23.808,[89.9201 23.308 90.9201 24.308],4.86,3.193,7.295,5.423,5.578,3.807,7.803,6.394,209.0,534.0
2015-03-10,Dhaka,Bangladesh,90.4201,23.808,[89.9201 23.308 90.9201 24.308],4.86,3.235,7.491,5.689,5.685,3.979,7.916,6.628,238.0,543.0
2015-03-11,Dhaka,Bangladesh,90.4201,23.808,[89.9201 23.308 90.9201 24.308],4.801,2.994,7.295,5.488,5.805,4.025,8.387,6.932,229.0,544.0
2015-03-12,Dhaka,Bangladesh,90.4201,23.808,[89.9201 23.308 90.9201 24.308],4.86,2.994,7.343,5.575,5.773,4.04,8.617,6.902,249.0,530.0
2015-03-13,Dhaka,Bangladesh,90.4201,23.808,[89.9201 23.308 90.9201 24.308],4.933,3.286,8.02,5.775,5.927,4.242,9.081,7.14,230.0,545.0
2015-03-14,Dhaka,Bangladesh,90.4201,23.808,[89.9201 23.308 90.9201 24.308],4.925,3.131,7.343,5.648,5.931,4.134,8.875,7.074,250.0,524.0
2015-03-15,Dhaka,Bangladesh,90.4201,23.808,[89.9201 23.308 90.9201 24.308],4.933,3.131,8.131,5.882,6.057,4.226,9.071,7.218,219.0,491.0
2015-03-16,Dhaka,Bangladesh,90.4201,23.808,[89.9201 23.308 90.9201 24.308],5.131,3.154,8.201,6.204,5.872,4.155,8.692,7.057,216.0,480.0
2015-03-17,Dhaka,Bangladesh,90.4201,23.808,[89.9201 23.308 90.9201 24.308],5.131,3.154,8.622,6.503,5.947,4.17,8.933,7.158,234.0,499.0
2015-03-18,Dhaka,Bangladesh,90.4201,23.808,[89.9201 23.308 90.9201 24.308],5.355,3.286,8.643,6.594,6.308,4.45,9.191,7.501,216.0,489.0
2015-03-19,Dhaka,Bangladesh,90.4201,23.808,[89.9201 23.308 90.9201 24.308],5.355,3.286,8.643,6.57,6.255,4.419,9.07,7.313,242.0,489.0
2015-03-20,Dhaka,Bangladesh,90.4201,23.808,[89.9201 23.308 90.9201 24.308],5.355,3.406,8.766,6.694,6.377,4.53,9.216,7.463,236.0,496.0
2015-03-21,Dhaka,Bangladesh,90.4201,23.808,[89.9201 23.308 90.9201 24.308],5.178,3.178,8.699,6.553,6.296,4.445,9.168,7.417,247.0,478.0
2015-03-22,Dhaka,Bangladesh,90.4201,23.808,[89.9201 23.308 90.9201 24.308],5.356,2.994,8.643,6.62,6.292,4.435,9.086,7.388,220.0,487.0
2015-03-23,Dhaka,Bangladesh,90.4201,23.808,[89.9201 23.308 90.9201 24.308],4.992,3.093,7.343,6.133,6.25,4.305,8.767,7.254,250.0,477.0
2015-03-24,Dhaka,Bangladesh,90.4201,23.808,[89.9201 23.308 90.9201 24.308],5.183,3.154,8.006,6.355,5.856,3.997,8.943,7.063,249.0,502.0
2015-03-25,Dhaka,Bangladesh,90.4201,23.808,[89.9201 23.308 90.9201 24.308],4.845,2.994,7.271,5.874,5.552,3.703,8.586,6.755,234.0,483.0
2015-03-26,Dhaka,Bangladesh,90.4201,23.808,[89.9201 23.308 90.9201 24.308],4.67,2.82,7.037,5.695,5.454,3.592,8.367,6.519,249.0,491.0
2015-03-27,Dhaka,Bangladesh,90.4201,23.808,[89.9201 23.308 90.9201 24.308],4.369,2.635,6.646,5.399,5.212,3.321,7.981,6.225,253.0,495.0
2015-03-28,Dhaka,Bangladesh,90.4201,23.808,[89.9201 23.308 90.9201 24.308],4.242,2.635,6.435,5.239,5.048,3.272,7.696,6.039,276.0,480.0
2015-03-29,Dhaka,Bangladesh,90.4201,23.808,[89.9201 23.308 90.9201 24.308],4.261,2.573,6.435,5.318,5.002,3.125,7.566,5.949,257.0,495.0
2015-03-30,Dhaka,Bangladesh,90.4201,23.808,[89.9201 23.308 90.9201 24.308],4.046,2.412,6.388,5.153,4.72,3.014,7.188,5.745,268.0,527.0
2015-03-31,Dhaka,Bangladesh,90.4201,23.808,[89.9201 23.308 90.9201 24.308],3.711,2.236,5.356,4.605,4.406,2.903,6.798,5.487,237.0,546.0
2015-04-01,Dhaka,Bangladesh,90.4201,23.808,[89.9201 23.308 90.9201 24.308],3.383,2.236,4.845,3.863,4.113,2.775,6.366,5.065,236.0,534.0
2015-04-02,Dhaka,Bangladesh,90.4201,23.808,[89.9201 23.308 90.9201 24.308],3.159,2.236,4.67,3.678,3.829,2.722,6.004,4.708,262.0,555.0
2015-04-03,Dhaka,Bangladesh,90.4201,23.808,[89.9201 23.308 90.9201 24.308],3.146,2.053,4.369,3.485,3.55,2.544,5.474,4.483,246.0,542.0
2015-04-04,Dhaka,Bangladesh,90.4201,23.808,[89.9201 23.308 90.9201 24.308],3.036,2.047,4.242,3.299,3.513,2.467,5.246,4.279,256.0,540.0
2015-04-05,Dhaka,Bangladesh,90.4201,23.808,[89.9201 23.308 90.9201 24.308],3.021,2.053,4.242,3.298,3.499,2.469,5.259,4.261,259.0,546.0
2015-04-06,Dhaka,Bangladesh,90.4201,23.808,[89.9201 23.308 90.9201 24.308],3.077,2.11,4.369,3.354,3.583,2.472,5.365,4.271,268.0,528.0
2015-04-07,Dhaka,Bangladesh,90.4201,23.808,[89.9201 23.308 90.9201 24.308],2.858,1.915,3.949,3.108,3.507,2.436,5.178,4.252,238.0,537.0
2015-04-08,Dhaka,Bangladesh,90.4201,23.808,[89.9201 23.308 90.9201 24.308],2.832,1.887,3.773,2.992,3.585,2.414,5.312,4.233,244.0,526.0
2015-04-09,Dhaka,Bangladesh,90.4201,23.808,[89.9201 23.308 90.9201 24.308],2.82,1.887,3.672,2.978,3.645,2.486,5.272,4.233,236.0,556.0
2015-04-10,Dhaka,Bangladesh,90.4201,23.808,[89.9201 23.308 90.9201 24.308],2.843,1.914,3.703,3.015,3.705,2.584,5.33,4.302,219.0,540.0
2015-04-11,Dhaka,Bangladesh,90.4201,23.808,[89.9201 23.308 90.9201 24.308],2.858,2.11,3.773,3.091,3.737,2.588,5.27,4.254,224.0,548.0
2015-04-12,Dhaka,Bangladesh,90.4201,23.808,[89.9201 23.308 90.9201 24.308],2.858,2.047,3.591,3.056,3.648,2.547,4.966,4.106,210.0,549.0
2015-04-13,Dhaka,Bangladesh,90.4201,23.808,[89.9201 23.308 90.9201 24.308],2.858,2.11,3.539,3.036,3.566,2.546,4.816,4.038,228.0,533.0
2015-04-14,Dhaka,Bangladesh,90.4201,23.808,[89.9201 23.308 90.9201 24.308],2.862,2.26,3.609,3.12,3.562,2.563,4.865,4.086,220.0,543.0
2015-04-15,Dhaka,Bangladesh,90.4201,23.808,[89.9201 23.308 90.9201 24.308],2.862,2.26,3.609,3.12,3.634,2.531,5.0,4.114,220.0,518.0
2015-04-16,Dhaka,Bangladesh,90.4201,23.808,[89.9201 23.308 90.9201 24.308],3.064,2.154,3.948,3.249,3.597,2.548,4.896,4.123,191.0,485.0
2015-04-17,Dhaka,Bangladesh,90.4201,23.808,[89.9201 23.308 90.9201 24.308],2.617,1.468,3.527,2.735,3.481,2.352,4.894,4.031,176.0,474.0
2015-04-18,Dhaka,Bangladesh,90.4201,23.808,[89.9201 23.308 90.9201 24.308],2.576,1.471,3.404,2.677,3.463,2.303,4.842,3.947,167.0,497.0
2015-04-19,Dhaka,Bangladesh,90.4201,23.808,[89.9201 23.308 90.9201 24.308],2.545,1.408,3.17,2.507,3.39,2.283,4.764,3.902,140.0,490.0
2015-04-20,Dhaka,Bangladesh,90.4201,23.808,[89.9201 23.308 90.9201 24.308],2.576,1.468,3.404,2.702,3.295,2.253,4.583,3.727,152.0,489.0
2015-04-21,Dhaka,Bangladesh,90.4201,23.808,[89.9201 23.308 90.9201 24.308],2.574,1.419,3.404,2.664,3.232,2.174,4.469,3.673,164.0,494.0
2015-04-22,Dhaka,Bangladesh,90.4201,23.808,[89.9201 23.308 90.9201 24.308],2.576,1.5,3.409,2.734,3.224,2.152,4.326,3.545,186.0,473.0
2015-04-23,Dhaka,Bangladesh,90.4201,23.808,[89.9201 23.308 90.9201 24.308],2.513,1.468,3.771,2.834,3.17,2.165,4.355,3.57,163.0,484.0
2015-04-24,Dhaka,Bangladesh,90.4201,23.808,[89.9201 23.308 90.9201 24.308],1.73,1.063,3.409,2.442,2.894,1.988,4.082,3.381,172.0,469.0
2015-04-25,Dhaka,Bangladesh,90.4201,23.808,[89.9201 23.308 90.9201 24.308],1.707,1.027,3.31,2.383,2.814,1.915,4.004,3.291,177.0,497.0
2015-04-26,Dhaka,Bangladesh,90.4201,23.808,[89.9201 23.308 90.9201 24.308],1.73,1.027,3.06,2.276,2.794,1.88,3.921,3.233,169.0,485.0
2015-04-27,Dhaka,Bangladesh,90.4201,23.808,[89.9201 23.308 90.9201 24.308],1.92,1.063,3.185,2.451,2.808,1.813,4.103,3.222,192.0,496.0
2015-04-28,Dhaka,Bangladesh,90.4201,23.808,[89.9201 23.308 90.9201 24.308],1.73,1.027,3.149,2.39,2.685,1.797,3.887,3.153,200.0,498.0
2015-04-29,Dhaka,Bangladesh,90.4201,23.808,[89.9201 23.308 90.9201 24.308],1.956,1.066,3.414,2.487,2.659,1.802,3.772,3.072,216.0,484.0
2015-04-30,Dhaka,Bangladesh,90.4201,23.808,[89.9201 23.308 90.9201 24.308],1.956,1.066,3.414,2.476,2.658,1.804,3.801,3.066,218.0,500.0
2015-05-01,Dhaka,Bangladesh,90.4201,23.808,[89.9201 23.308 90.9201 24.308],1.956,1.156,3.31,2.47,2.619,1.771,3.888,3.044,227.0,522.0
2015-05-02,Dhaka,Bangladesh,90.4201,23.808,[89.9201 23.308 90.9201 24.308],2.333,1.193,3.575,2.702,2.722,1.835,3.998,3.1,207.0,540.0
2015-05-03,Dhaka,Bangladesh,90.4201,23.808,[89.9201 23.308 90.9201 24.308],1.716,0.933,3.236,2.293,2.53,1.737,3.844,2.958,231.0,531.0
2015-05-04,Dhaka,Bangladesh,90.4201,23.808,[89.9201 23.308 90.9201 24.308],1.837,0.949,3.255,2.312,2.572,1.753,3.81,2.977,259.0,550.0
2015-05-05,Dhaka,Bangladesh,90.4201,23.808,[89.9201 23.308 90.9201 24.308],1.716,0.933,3.185,2.226,2.465,1.757,3.783,2.972,247.0,544.0
2015-05-06,Dhaka,Bangladesh,90.4201,23.808,[89.9201 23.308 90.9201 24.308],1.836,0.949,3.158,2.222,2.485,1.791,3.608,2.902,252.0,545.0
2015-05-07,Dhaka,Bangladesh,90.4201,23.808,[89.9201 23.308 90.9201 24.308],1.733,0.933,3.149,2.174,2.436,1.729,3.637,2.91,253.0,555.0
2015-05-08,Dhaka,Bangladesh,90.4201,23.808,[89.9201 23.308 90.9201 24.308],1.711,0.933,3.0,2.147,2.358,1.693,3.512,2.842,261.0,533.0
2015-05-09,Dhaka,Bangladesh,90.4201,23.808,[89.9201 23.308 90.9201 24.308],2.053,1.012,3.31,2.364,2.464,1.711,3.618,2.93,246.0,544.0
2015-05-10,Dhaka,Bangladesh,90.4201,23.808,[89.9201 23.308 90.9201 24.308],2.115,1.037,3.31,2.359,2.462,1.694,3.58,2.878,245.0,529.0
2015-05-11,Dhaka,Bangladesh,90.4201,23.808,[89.9201 23.308 90.9201 24.308],2.023,1.012,3.343,2.351,2.465,1.731,3.531,2.876,236.0,551.0
2015-05-12,Dhaka,Bangladesh,90.4201,23.808,[89.9201 23.308 90.9201 24.308],2.027,1.012,3.509,2.34,2.485,1.763,3.621,2.897,226.0,541.0
2015-05-13,Dhaka,Bangladesh,90.4201,23.808,[89.9201 23.308 90.9201 24.308],2.101,1.037,3.552,2.576,2.537,1.815,3.75,2.999,229.0,551.0
2015-05-14,Dhaka,Bangladesh,90.4201,23.808,[89.9201 23.308 90.9201 24.308],2.027,1.037,3.4,2.517,2.548,1.832,3.684,2.993,237.0,550.0
2015-05-15,Dhaka,Bangladesh,90.4201,23.808,[89.9201 23.308 90.9201 24.308],2.027,1.1,3.321,2.484,2.461,1.81,3.52,2.917,252.0,535.0
2015-05-16,Dhaka,Bangladesh,90.4201,23.808,[89.9201 23.308 90.9201 24.308],2.023,1.039,3.321,2.48,2.453,1.762,3.479,2.882,252.0,555.0
2015-05-17,Dhaka,Bangladesh,90.4201,23.808,[89.9201 23.308 90.9201 24.308],2.008,1.114,3.202,2.418,2.422,1.742,3.364,2.769,265.0,527.0
2015-05-18,Dhaka,Bangladesh,90.4201,23.808,[89.9201 23.308 90.9201 24.308],2.487,1.527,3.509,2.833,2.566,1.904,3.485,2.964,240.0,493.0
2015-05-19,Dhaka,Bangladesh,90.4201,23.808,[89.9201 23.308 90.9201 24.308],2.079,1.359,3.21,2.594,2.436,1.776,3.352,2.827,238.0,482.0
2015-05-20,Dhaka,Bangladesh,90.4201,23.808,[89.9201 23.308 90.9201 24.308],2.076,1.359,3.178,2.529,2.5,1.803,3.495,2.899,251.0,498.0
2015-05-21,Dhaka,Bangladesh,90.4201,23.808,[89.9201 23.308 90.9201 24.308],2.023,1.347,3.118,2.448,2.513,1.789,3.516,2.9,228.0,490.0
2015-05-22,Dhaka,Bangladesh,90.4201,23.808,[89.9201 23.308 90.9201 24.308],1.96,1.347,3.012,2.373,2.521,1.794,3.493,2.914,232.0,485.0
2015-05-23,Dhaka,Bangladesh,90.4201,23.808,[89.9201 23.308 90.9201 24.308],2.008,1.359,3.029,2.409,2.721,1.92,3.732,3.039,224.0,494.0
2015-05-24,Dhaka,Bangladesh,90.4201,23.808,[89.9201 23.308 90.9201 24.308],1.955,1.347,2.926,2.336,2.701,1.923,3.676,3.024,245.0,476.0
2015-05-25,Dhaka,Bangladesh,90.4201,23.808,[89.9201 23.308 90.9201 24.308],1.876,1.359,2.719,2.369,2.717,1.996,3.751,3.099,234.0,490.0
2015-05-26,Dhaka,Bangladesh,90.4201,23.808,[89.9201 23.308 90.9201 24.308],1.82,1.359,2.719,2.349,2.712,2.006,3.698,3.091,228.0,477.0
2015-05-27,Dhaka,Bangladesh,90.4201,23.808,[89.9201 23.308 90.9201 24.308],1.748,1.337,2.517,2.172,2.694,2.042,3.663,3.06,219.0,498.0
2015-05-28,Dhaka,Bangladesh,90.4201,23.808,[89.9201 23.308 90.9201 24.308],1.781,1.347,2.519,1.999,2.652,1.997,3.655,3.009,211.0,485.0
2015-05-29,Dhaka,Bangladesh,90.4201,23.808,[89.9201 23.308 90.9201 24.308],1.776,1.329,2.517,2.003,2.674,1.956,3.739,3.04,212.0,497.0
2015-05-30,Dhaka,Bangladesh,90.4201,23.808,[89.9201 23.308 90.9201 24.308],1.723,1.319,2.517,1.994,2.739,1.971,3.856,3.203,206.0,499.0
2015-05-31,Dhaka,Bangladesh,90.4201,23.808,[89.9201 23.308 90.9201 24.308],1.789,1.329,2.551,2.058,2.884,2.014,4.105,3.368,217.0,483.0
2015-06-01,Dhaka,Bangladesh,90.4201,23.808,[89.9201 23.308 90.9201 24.308],1.803,1.347,2.577,2.113,2.915,2.028,4.27,3.439,213.0,499.0
2015-06-02,Dhaka,Bangladesh,90.4201,23.808,[89.9201 23.308 90.9201 24.308],1.869,1.359,2.577,2.136,2.889,1.999,4.194,3.358,224.0,522.0
2015-06-03,Dhaka,Bangladesh,90.4201,23.808,[89.9201 23.308 90.9201 24.308],1.977,1.407,2.761,2.293,2.975,2.068,4.279,3.499,198.0,538.0
2015-06-04,Dhaka,Bangladesh,90.4201,23.808,[89.9201 23.308 90.9201 24.308],1.976,1.405,2.733,2.261,2.885,1.967,4.319,3.401,171.0,526.0
2015-06-05,Dhaka,Bangladesh,90.4201,23.808,[89.9201 23.308 90.9201 24.308],1.977,1.405,2.761,2.286,2.835,1.985,4.425,3.455,169.0,543.0
2015-06-06,Dhaka,Bangladesh,90.4201,23.808,[89.9201 23.308 90.9201 24.308],2.008,1.405,2.854,2.341,2.899,1.927,4.355,3.423,142.0,534.0
2015-06-07,Dhaka,Bangladesh,90.4201,23.808,[89.9201 23.308 90.9201 24.308],2.118,1.407,3.447,2.651,2.747,1.81,4.094,3.353,157.0,531.0
2015-06-08,Dhaka,Bangladesh,90.4201,23.808,[89.9201 23.308 90.9201 24.308],2.271,1.456,3.655,2.86,2.865,1.771,4.237,3.442,136.0,537.0
2015-06-09,Dhaka,Bangladesh,90.4201,23.808,[89.9201 23.308 90.9201 24.308],2.271,1.456,3.655,2.86,2.819,1.756,4.257,3.423,136.0,516.0
2015-06-10,Dhaka,Bangladesh,90.4201,23.808,[89.9201 23.308 90.9201 24.308],2.526,1.858,3.723,2.987,2.807,1.765,4.222,3.371,130.0,529.0
2015-06-11,Dhaka,Bangladesh,90.4201,23.808,[89.9201 23.308 90.9201 24.308],2.517,1.723,3.362,2.717,2.761,1.774,4.179,3.368,141.0,517.0
2015-06-12,Dhaka,Bangladesh,90.4201,23.808,[89.9201 23.308 90.9201 24.308],2.345,1.669,3.23,2.705,2.703,1.763,4.083,3.348,134.0,541.0
2015-06-13,Dhaka,Bangladesh,90.4201,23.808,[89.9201 23.308 90.9201 24.308],2.322,1.669,2.946,2.603,2.761,1.741,3.967,3.299,115.0,527.0
2015-06-14,Dhaka,Bangladesh,90.4201,23.808,[89.9201 23.308 90.9201 24.308],2.322,1.612,3.01,2.586,2.746,1.679,3.726,3.082,123.0,535.0
2015-06-15,Dhaka,Bangladesh,90.4201,23.808,[89.9201 23.308 90.9201 24.308],2.322,1.586,3.01,2.581,2.403,1.591,3.534,2.783,103.0,539.0
2015-06-16,Dhaka,Bangladesh,90.4201,23.808,[89.9201 23.308 90.9201 24.308],2.322,1.502,2.946,2.579,2.333,1.53,3.191,2.689,94.0,530.0
2015-06-17,Dhaka,Bangladesh,90.4201,23.808,[89.9201 23.308 90.9201 24.308],2.345,1.502,2.946,2.602,2.385,1.545,3.266,2.702,83.0,547.0
2015-06-18,Dhaka,Bangladesh,90.4201,23.808,[89.9201 23.308 90.9201 24.308],2.345,1.502,2.946,2.602,2.332,1.523,3.236,2.653,83.0,522.0
2015-06-19,Dhaka,Bangladesh,90.4201,23.808,[89.9201 23.308 90.9201 24.308],2.345,1.502,2.946,2.602,2.261,1.483,3.088,2.594,83.0,489.0
2015-06-20,Dhaka,Bangladesh,90.4201,23.808,[89.9201 23.308 90.9201 24.308],2.345,1.502,2.946,2.587,2.258,1.48,3.075,2.573,82.0,477.0
2015-06-21,Dhaka,Bangladesh,90.4201,23.808,[89.9201 23.308 90.9201 24.308],2.345,1.502,2.946,2.582,2.23,1.439,3.099,2.542,83.0,498.0
2015-06-22,Dhaka,Bangladesh,90.4201,23.808,[89.9201 23.308 90.9201 24.308],2.23,1.236,2.733,2.111,2.224,1.388,2.952,2.391,73.0,491.0
2015-06-23,Dhaka,Bangladesh,90.4201,23.808,[89.9201 23.308 90.9201 24.308],2.233,1.236,2.733,2.127,2.201,1.383,2.989,2.41,82.0,492.0
2015-06-24,Dhaka,Bangladesh,90.4201,23.808,[89.9201 23.308 90.9201 24.308],2.244,1.236,2.789,2.188,2.187,1.387,2.988,2.414,99.0,497.0